KF5JED-13 Weather Reports


time (UTC)temp
C
wind
direction
speed
KPH
gust
KPH
rain 1hr
cm
rain 24hr
cm
rain mn
cm
humidity
%
barometer
mb
20240614122028 20 150 12.9 16.1 0.00 0.00 0.00 93 1018.2
20240614121528 20 150 14.5 14.5 0.00 0.00 0.00 93 1018.4
20240614121027 20 160 12.9 16.1 0.00 0.00 0.00 94 1018.4
20240614120526 20 147 12.9 17.7 0.00 0.00 0.00 95 1018.0
20240614120025 20 166 17.7 17.7 0.00 0.00 0.00 95 1017.7
20240614115525 20 152 16.1 19.3 0.00 0.00 0.00 95 1017.8
20240614115023 20 154 14.5 17.7 0.00 0.00 0.00 95 1017.8
20240614114522 20 142 11.3 19.3 0.00 0.00 0.00 95 1018.1
20240614114021 20 143 12.9 17.7 0.00 0.00 0.00 95 1018.0
20240614113521 20 147 12.9 17.7 0.00 0.00 0.00 95 1018.1
20240614113019 20 145 14.5 16.1 0.00 0.00 0.00 95 1018.4
20240614112517 20 140 12.9 16.1 0.00 0.00 0.00 96 1018.0
20240614112016 20 144 9.7 16.1 0.00 0.00 0.00 95 1017.9
20240614111513 20 128 9.7 14.5 0.00 0.00 0.00 95 1018.1
20240614111011 20 135 12.9 17.7 0.00 0.00 0.00 95 1018.0
20240614110510 20 130 12.9 20.9 0.00 0.00 0.00 95 1018.1
20240614110009 20 142 9.7 19.3 0.00 0.00 0.00 95 1018.0
20240614105506 20 135 9.7 17.7 0.00 0.00 0.00 94 1018.0
20240614105006 20 137 12.9 17.7 0.00 0.00 0.00 94 1018.4
20240614104503 20 120 12.9 16.1 0.00 0.00 0.00 93 1018.2
20240614104002 20 135 12.9 20.9 0.00 0.00 0.00 93 1018.1
20240614103501 20 139 9.7 19.3 0.00 0.00 0.00 92 1018.0
20240614103000 20 134 12.9 20.9 0.00 0.00 0.00 92 1018.2
20240614102458 20 139 8.0 12.9 0.00 0.00 0.00 92 1018.4
20240614101956 20 150 9.7 12.9 0.00 0.00 0.00 92 1018.2
20240614101454 20 137 6.4 16.1 0.00 0.00 0.00 92 1018.2
20240614100953 20 132 11.3 14.5 0.00 0.00 0.00 92 1018.1
20240614100451 20 140 11.3 17.7 0.00 0.00 0.00 91 1018.0
20240614095950 21 146 12.9 16.1 0.00 0.00 0.00 91 1018.2
20240614095449 21 129 11.3 16.1 0.00 0.00 0.00 90 1017.9
20240614094948 21 139 11.3 16.1 0.00 0.00 0.00 89 1017.9
20240614094446 21 140 11.3 17.7 0.00 0.00 0.00 89 1018.1
20240614093946 21 137 8.0 16.1 0.00 0.00 0.00 88 1018.0
20240614093445 21 128 11.3 17.7 0.00 0.00 0.00 88 1017.9
20240614092945 21 140 14.5 16.1 0.00 0.00 0.00 87 1017.8
20240614092444 21 103 8.0 11.3 0.00 0.00 0.00 86 1018.0
20240614091943 21 97 6.4 14.5 0.00 0.00 0.00 85 1018.2
20240614091443 21 96 6.4 14.5 0.00 0.00 0.00 84 1018.1
20240614090941 21 92 9.7 14.5 0.00 0.00 0.00 84 1018.4
20240614090440 21 144 11.3 12.9 0.00 0.00 0.00 83 1018.1
20240614085938 21 104 6.4 9.7 0.00 0.00 0.00 82 1017.9
20240614085435 22 100 6.4 14.5 0.00 0.00 0.00 81 1018.1
20240614084933 22 135 11.3 12.9 0.00 0.00 0.00 81 1017.8
20240614084432 22 108 9.7 14.5 0.00 0.00 0.00 80 1017.8
20240614083932 22 113 9.7 11.3 0.00 0.00 0.00 79 1017.8
20240614083429 22 148 16.1 19.3 0.00 0.00 0.00 78 1017.8
20240614082928 22 155 14.5 19.3 0.00 0.00 0.00 79 1017.8
20240614082427 22 117 4.8 14.5 0.00 0.00 0.00 78 1018.2
20240614081925 22 98 8.0 9.7 0.00 0.00 0.00 77 1018.5
20240614081424 22 135 9.7 14.5 0.00 0.00 0.00 77 1018.2
20240614080923 23 91 4.8 11.3 0.00 0.00 0.00 75 1018.5
20240614080422 23 115 11.3 11.3 0.00 0.00 0.00 74 1018.2
20240614075921 23 136 6.4 12.9 0.00 0.00 0.00 74 1018.5
20240614075420 23 145 8.0 9.7 0.00 0.00 0.00 73 1018.5
20240614074920 23 89 9.7 12.9 0.00 0.00 0.00 72 1018.4
20240614074418 23 96 9.7 16.1 0.00 0.00 0.00 71 1018.6
20240614073917 23 129 8.0 12.9 0.00 0.00 0.00 70 1018.2
20240614073416 23 100 8.0 12.9 0.00 0.00 0.00 68 1018.5
20240614072915 24 89 8.0 19.3 0.00 0.00 0.00 68 1018.6
20240614072414 24 105 11.3 19.3 0.00 0.00 0.00 68 1018.1
20240614071912 23 136 9.7 12.9 0.00 0.00 0.00 69 1018.0
20240614071411 23 91 8.0 19.3 0.00 0.00 0.00 69 1018.0
20240614070910 23 129 8.0 11.3 0.00 0.00 0.00 68 1017.8
20240614070408 23 113 6.4 9.7 0.00 0.00 0.00 67 1017.7
20240614065908 23 112 8.0 14.5 0.00 0.00 0.00 66 1017.5
20240614065407 23 137 14.5 16.1 0.00 0.00 0.00 65 1017.3
20240614064905 24 134 16.1 20.9 0.00 0.00 0.00 63 1017.3
20240614064403 24 144 19.3 30.6 0.00 0.00 0.00 63 1016.9
20240614063900 23 158 24.1 27.4 0.00 0.00 0.00 61 1016.9
20240614063400 23 145 17.7 24.1 0.00 0.00 0.00 58 1016.8
20240614062859 23 153 19.3 20.9 0.00 0.00 0.00 57 1016.8
20240614062358 23 153 14.5 19.3 0.00 0.00 0.00 58 1017.0
20240614061857 23 144 12.9 19.3 0.00 0.00 0.00 57 1016.8
20240614061356 23 146 12.9 22.5 0.00 0.00 0.00 57 1016.9
20240614060856 23 155 19.3 22.5 0.00 0.00 0.00 57 1016.6
20240614060354 23 155 14.5 20.9 0.00 0.00 0.00 56 1016.7
20240614055852 24 130 14.5 25.7 0.00 0.00 0.00 53 1016.6
20240614055351 25 146 17.7 25.7 0.00 0.00 0.00 50 1016.5
20240614054850 24 149 19.3 25.7 0.00 0.00 0.00 51 1016.3
20240614054349 24 161 16.1 24.1 0.00 0.00 0.00 51 1016.0
20240614053849 24 153 17.7 27.4 0.00 0.00 0.00 51 1016.1
20240614053347 25 161 19.3 30.6 0.00 0.00 0.00 50 1015.8
20240614052847 25 158 24.1 29.0 0.00 0.00 0.00 49 1015.7
20240614052346 25 159 22.5 29.0 0.00 0.00 0.00 48 1015.7
20240614051844 25 156 29.0 33.8 0.00 0.00 0.00 47 1015.7
20240614051343 25 160 24.1 35.4 0.00 0.00 0.00 46 1015.8
20240614050842 25 159 27.4 33.8 0.00 0.00 0.00 45 1015.7
20240614050341 25 158 25.7 30.6 0.00 0.00 0.00 49 1015.9
20240614045839 25 165 25.7 33.8 0.00 0.00 0.00 49 1015.8
20240614045338 25 159 24.1 30.6 0.00 0.00 0.00 49 1016.0
20240614044836 25 157 24.1 37.0 0.00 0.00 0.00 49 1015.8
20240614044335 25 150 25.7 35.4 0.00 0.00 0.00 48 1016.3
20240614043835 25 151 20.9 30.6 0.00 0.00 0.00 48 1016.3
20240614043334 25 147 24.1 33.8 0.00 0.00 0.00 49 1016.7
20240614042834 24 152 16.1 25.7 0.00 0.00 0.00 53 1017.0
20240614042332 23 146 14.5 20.9 0.00 0.00 0.00 55 1017.1
20240614041830 25 154 16.1 19.3 0.00 0.00 0.00 51 1017.0
20240614041328 23 144 16.1 17.7 0.00 0.00 0.00 55 1017.5
20240614040826 23 124 9.7 14.5 0.00 0.00 0.00 58 1017.6
20240614040325 24 129 8.0 9.7 0.00 0.00 0.00 55 1017.7
20240614035824 25 124 4.8 9.7 0.00 0.00 0.00 50 1018.0
20240614035321 25 71 8.0 9.7 0.00 0.00 0.00 50 1018.0
20240614034821 25 19 8.0 8.0 0.00 0.00 0.00 51 1018.4
20240614034319 25 15 8.0 11.3 0.00 0.00 0.00 49 1018.1
20240614033817 25 29 12.9 17.7 0.00 0.00 0.00 48 1018.2
20240614033317 24 39 9.7 12.9 0.00 0.00 0.00 53 1018.0
20240614032815 24 35 6.4 14.5 0.00 0.00 0.00 56 1018.0
20240614032314 24 34 6.4 11.3 0.00 0.00 0.00 57 1018.0
20240614031813 23 32 9.7 12.9 0.00 0.00 0.00 58 1018.1
20240614031312 23 21 11.3 17.7 0.00 0.00 0.00 60 1018.1
20240614030810 23 9 11.3 14.5 0.00 0.00 0.00 62 1018.0
20240614030308 23 24 14.5 19.3 0.00 0.00 0.00 63 1018.1
20240614025807 23 22 17.7 20.9 0.00 0.00 0.00 62 1018.1
20240614025307 23 9 17.7 19.3 0.00 0.00 0.00 61 1018.4
20240614024804 23 35 9.7 16.1 0.00 0.00 0.00 61 1018.4
20240614024303 23 31 12.9 24.1 0.00 0.00 0.00 58 1018.6
20240614023802 23 20 17.7 24.1 0.00 0.00 0.00 58 1018.5
20240614023300 24 13 11.3 19.3 0.00 0.00 0.00 56 1018.6
20240614022759 23 39 14.5 24.1 0.00 0.00 0.00 59 1018.9
20240614022258 23 0 19.3 27.4 0.00 0.00 0.00 59 1018.8
20240614021758 23 352 30.6 33.8 0.00 0.00 0.00 61 1019.0
20240614021257 23 8 27.4 32.2 0.00 0.00 0.00 59 1019.0
20240614020756 23 12 17.7 30.6 0.00 0.00 0.00 61 1019.4
20240614020255 23 356 20.9 37.0 0.00 0.00 0.00 57 1019.5
20240614015754 25 354 20.9 33.8 0.00 0.00 0.00 55 1019.1
20240614015252 25 355 22.5 32.2 0.00 0.00 0.00 55 1019.2
20240614014751 26 353 19.3 37.0 0.00 0.00 0.00 51 1019.0
20240614014250 26 6 35.4 46.7 0.00 0.00 0.00 49 1018.1
20240614013748 27 9 32.2 57.9 0.00 0.00 0.00 47 1018.1
20240614013246 28 9 43.5 61.2 0.00 0.00 0.00 43 1017.2
20240614012744 28 322 22.5 33.8 0.00 0.00 0.00 43 1017.1
20240614012245 31 297 4.8 4.8 0.00 0.00 0.00 47 1016.2
20240614011743 31 154 11.3 17.7 0.00 0.00 0.00 48 1015.7
20240614011241 31 162 19.3 20.9 0.00 0.00 0.00 46 1015.1
20240614010741 31 161 14.5 27.4 0.00 0.00 0.00 45 1015.2
20240614010240 32 160 24.1 24.1 0.00 0.00 0.00 44 1015.1
20240614005740 32 159 19.3 27.4 0.00 0.00 0.00 43 1015.0
20240614005238 32 161 19.3 24.1 0.00 0.00 0.00 43 1014.9
20240614004737 32 160 22.5 25.7 0.00 0.00 0.00 42 1015.1
20240614004235 32 157 14.5 25.7 0.00 0.00 0.00 43 1015.0
20240614003733 32 165 19.3 25.7 0.00 0.00 0.00 43 1015.0
20240614003233 33 167 17.7 30.6 0.00 0.00 0.00 42 1014.9
20240614002729 33 161 17.7 30.6 0.00 0.00 0.00 42 1014.9
20240614002228 33 161 16.1 30.6 0.00 0.00 0.00 41 1015.0
20240614001727 33 163 19.3 29.0 0.00 0.00 0.00 41 1015.0
20240614001225 33 159 20.9 30.6 0.00 0.00 0.00 41 1014.9
20240614000724 33 153 17.7 29.0 0.00 0.00 0.00 40 1014.9
20240614000224 33 162 24.1 29.0 0.00 0.00 0.00 39 1014.9
20240613235723 33 157 19.3 24.1 0.00 0.00 0.00 40 1015.0
20240613235221 34 161 14.5 22.5 0.00 0.00 0.00 42 1015.1
20240613234721 34 162 27.4 29.0 0.00 0.00 0.00 38 1014.9
20240613234220 34 167 24.1 30.6 0.00 0.00 0.00 39 1015.0
20240613233719 34 158 9.7 22.5 0.00 0.00 0.00 40 1014.8
20240613233217 34 164 19.3 27.4 0.00 0.00 0.00 40 1014.8
20240613232715 34 164 24.1 29.0 0.00 0.00 0.00 39 1014.8
20240613232214 34 171 27.4 33.8 0.00 0.00 0.00 38 1014.6
20240613231713 34 154 17.7 27.4 0.00 0.00 0.00 39 1014.8
20240613231210 35 179 12.9 30.6 0.00 0.00 0.00 40 1014.7
20240613230709 35 170 24.1 27.4 0.00 0.00 0.00 37 1014.8
20240613230207 35 171 24.1 37.0 0.00 0.00 0.00 37 1014.8
20240613225705 35 172 24.1 30.6 0.00 0.00 0.00 38 1015.0
20240613225203 35 165 19.3 29.0 0.00 0.00 0.00 38 1014.9
20240613224656 35 170 20.9 30.6 0.00 0.00 0.00 38 1015.3
20240613224147 35 202 30.6 37.0 0.00 0.00 0.00 39 1015.1
20240613223645 35 188 20.9 33.8 0.00 0.00 0.00 37 1015.0
20240613223143 35 173 12.9 30.6 0.00 0.00 0.00 35 1015.0
20240613222642 35 182 19.3 25.7 0.00 0.00 0.00 37 1015.3
20240613222140 35 186 22.5 30.6 0.00 0.00 0.00 39 1015.5
20240613221639 35 171 27.4 33.8 0.00 0.00 0.00 38 1015.5
20240613221137 35 174 19.3 29.0 0.00 0.00 0.00 37 1015.3
20240613220637 35 163 19.3 29.0 0.00 0.00 0.00 35 1015.5
20240613220134 35 187 9.7 25.7 0.00 0.00 0.00 40 1015.7
20240613215632 35 215 19.3 33.8 0.00 0.00 0.00 37 1015.5
20240613215130 35 161 19.3 30.6 0.00 0.00 0.00 39 1015.3
20240613214629 35 208 20.9 29.0 0.00 0.00 0.00 34 1015.7
20240613214127 35 208 25.7 33.8 0.00 0.00 0.00 36 1015.9
20240613213626 35 191 12.9 27.4 0.00 0.00 0.00 41 1015.7
20240613213125 35 169 17.7 32.2 0.00 0.00 0.00 42 1015.7
20240613212625 35 186 24.1 32.2 0.00 0.00 0.00 38 1015.6
20240613212123 35 170 17.7 27.4 0.00 0.00 0.00 40 1015.9
20240613211623 35 200 19.3 32.2 0.00 0.00 0.00 40 1015.9
20240613211121 35 163 22.5 30.6 0.00 0.00 0.00 41 1015.9
20240613210620 35 191 24.1 29.0 0.00 0.00 0.00 40 1016.1
20240613210119 35 167 17.7 25.7 0.00 0.00 0.00 40 1015.9
20240613205617 35 204 12.9 25.7 0.00 0.00 0.00 41 1016.1
20240613205115 35 198 20.9 25.7 0.00 0.00 0.00 43 1016.3
20240613204615 35 182 11.3 27.4 0.00 0.00 0.00 41 1016.1
20240613204114 35 165 19.3 30.6 0.00 0.00 0.00 41 1016.2
20240613203613 34 170 16.1 32.2 0.00 0.00 0.00 41 1016.5
20240613203112 35 174 22.5 32.2 0.00 0.00 0.00 43 1016.3
20240613202610 34 195 17.7 30.6 0.00 0.00 0.00 44 1016.5
20240613202109 35 195 22.5 29.0 0.00 0.00 0.00 43 1016.5
20240613201607 35 194 14.5 30.6 0.00 0.00 0.00 45 1016.2
20240613201107 34 165 20.9 30.6 0.00 0.00 0.00 44 1016.5
20240613200606 33 163 20.9 32.2 0.00 0.00 0.00 44 1016.6
20240613200105 33 174 20.9 25.7 0.00 0.00 0.00 41 1016.7
20240613195603 34 189 14.5 30.6 0.00 0.00 0.00 45 1016.5
20240613195102 33 199 17.7 29.0 0.00 0.00 0.00 45 1016.7
20240613194600 33 167 27.4 32.2 0.00 0.00 0.00 44 1016.7
20240613194059 34 182 24.1 25.7 0.00 0.00 0.00 46 1017.0
20240613193558 33 176 20.9 27.4 0.00 0.00 0.00 43 1017.0
20240613193055 33 204 16.1 24.1 0.00 0.00 0.00 46 1016.9
20240613192553 33 167 20.9 27.4 0.00 0.00 0.00 43 1016.8
20240613192052 33 159 12.9 27.4 0.00 0.00 0.00 46 1017.0
20240613191551 33 215 24.1 32.2 0.00 0.00 0.00 44 1016.9
20240613191050 33 195 22.5 27.4 0.00 0.00 0.00 44 1017.1
20240613190548 33 185 17.7 22.5 0.00 0.00 0.00 49 1017.1
20240613190047 33 181 17.7 22.5 0.00 0.00 0.00 46 1017.1
20240613185547 33 204 20.9 25.7 0.00 0.00 0.00 42 1017.2
20240613185046 32 174 16.1 24.1 0.00 0.00 0.00 51 1017.2
20240613184546 32 205 14.5 24.1 0.00 0.00 0.00 51 1017.1
20240613184044 32 205 17.7 27.4 0.00 0.00 0.00 47 1017.3
20240613183545 32 201 14.5 22.5 0.00 0.00 0.00 49 1017.2
20240613183044 32 201 16.1 22.5 0.00 0.00 0.00 51 1017.5
20240613182542 31 203 17.7 22.5 0.00 0.00 0.00 53 1017.6
20240613182041 32 175 16.1 24.1 0.00 0.00 0.00 51 1017.6
20240613181539 32 202 19.3 29.0 0.00 0.00 0.00 51 1017.6
20240613181038 32 208 19.3 27.4 0.00 0.00 0.00 49 1017.7
20240613180538 32 196 19.3 24.1 0.00 0.00 0.00 52 1017.7
20240613180035 31 195 16.1 27.4 0.00 0.00 0.00 54 1017.7
20240613175534 31 203 17.7 27.4 0.00 0.00 0.00 52 1017.5
20240613175033 31 213 24.1 29.0 0.00 0.00 0.00 49 1017.7
20240613174532 31 204 20.9 25.7 0.00 0.00 0.00 55 1017.8
20240613174030 31 196 14.5 24.1 0.00 0.00 0.00 54 1017.9
20240613173529 31 207 16.1 25.7 0.00 0.00 0.00 56 1018.1
20240613173028 31 180 16.1 27.4 0.00 0.00 0.00 56 1017.9
20240613172525 31 202 24.1 27.4 0.00 0.00 0.00 56 1018.0
20240613172024 30 202 14.5 24.1 0.00 0.00 0.00 58 1017.8
20240613171522 30 218 22.5 27.4 0.00 0.00 0.00 57 1017.8
20240613171020 30 223 12.9 27.4 0.00 0.00 0.00 57 1018.0
20240613170519 30 211 14.5 25.7 0.00 0.00 0.00 57 1017.9
20240613170019 30 207 16.1 30.6 0.00 0.00 0.00 60 1018.0
20240613165515 29 212 20.9 29.0 0.00 0.00 0.00 59 1018.0
20240613165014 29 217 11.3 30.6 0.00 0.00 0.00 57 1017.9
20240613164513 29 218 22.5 27.4 0.00 0.00 0.00 60 1018.0
20240613164012 28 195 11.3 25.7 0.00 0.00 0.00 63 1018.1
20240613163512 28 200 19.3 25.7 0.00 0.00 0.00 63 1018.0
20240613163011 28 205 20.9 24.1 0.00 0.00 0.00 61 1018.0
20240613162506 28 211 19.3 27.4 0.00 0.00 0.00 61 1018.0
20240613162004 28 208 20.9 25.7 0.00 0.00 0.00 62 1018.0
20240613161458 28 209 16.1 24.1 0.00 0.00 0.00 64 1018.0
20240613160959 27 209 12.9 27.4 0.00 0.00 0.00 65 1018.0
20240613160456 27 208 17.7 24.1 0.00 0.00 0.00 64 1018.0
20240613155954 27 198 19.3 25.7 0.00 0.00 0.00 65 1018.1
20240613155451 27 224 19.3 24.1 0.00 0.00 0.00 65 1018.1
20240613154951 27 211 17.7 27.4 0.00 0.00 0.00 68 1018.0
20240613154448 27 214 8.0 27.4 0.00 0.00 0.00 68 1018.0
20240613153947 27 211 14.5 27.4 0.00 0.00 0.00 68 1018.1
20240613153445 26 206 20.9 27.4 0.00 0.00 0.00 68 1018.1
20240613152944 26 210 19.3 20.9 0.00 0.00 0.00 68 1018.2
20240613152443 26 203 17.7 25.7 0.00 0.00 0.00 70 1018.0
20240613151943 26 211 19.3 25.7 0.00 0.00 0.00 69 1017.9
20240613151441 26 195 25.7 27.4 0.00 0.00 0.00 70 1018.1
20240613150939 26 215 16.1 29.0 0.00 0.00 0.00 71 1018.4
20240613150438 26 202 16.1 27.4 0.00 0.00 0.00 73 1018.1
20240613145937 25 201 17.7 27.4 0.00 0.00 0.00 72 1017.9
20240613145435 25 182 19.3 25.7 0.00 0.00 0.00 73 1017.8
20240613144935 25 215 22.5 27.4 0.00 0.00 0.00 74 1017.9
20240613144434 25 208 20.9 30.6 0.00 0.00 0.00 76 1018.0
20240613143932 24 199 19.3 35.4 0.00 0.00 0.00 76 1017.9
20240613143430 25 202 20.9 25.7 0.00 0.00 0.00 77 1017.9
20240613142928 24 219 22.5 32.2 0.00 0.00 0.00 78 1018.0
20240613142427 23 206 20.9 33.8 0.00 0.00 0.00 78 1017.7
20240613141926 23 207 17.7 27.4 0.00 0.00 0.00 80 1017.7
20240613141425 23 203 17.7 25.7 0.00 0.00 0.00 80 1017.7
20240613140925 23 192 22.5 29.0 0.00 0.00 0.00 82 1017.6
20240613140424 23 207 17.7 29.0 0.00 0.00 0.00 82 1017.3
20240613135923 22 208 20.9 35.4 0.00 0.00 0.00 83 1017.3
20240613135423 22 219 17.7 33.8 0.00 0.00 0.00 83 1017.5
20240613134922 22 214 27.4 33.8 0.00 0.00 0.00 84 1017.5
20240613134418 22 208 17.7 32.2 0.00 0.00 0.00 85 1017.5
20240613133916 22 218 17.7 24.1 0.00 0.00 0.00 85 1017.6
20240613133415 22 200 11.3 25.7 0.00 0.00 0.00 87 1017.1
20240613132915 21 201 14.5 24.1 0.00 0.00 0.00 87 1017.5
20240613132414 21 199 16.1 19.3 0.00 0.00 0.00 89 1017.2
20240613131912 21 214 19.3 22.5 0.00 0.00 0.00 89 1017.2
20240613131409 20 210 14.5 20.9 0.00 0.00 0.00 90 1017.1
20240613130908 20 191 8.0 16.1 0.00 0.00 0.00 91 1017.2
20240613130408 20 198 11.3 17.7 0.00 0.00 0.00 92 1017.2
20240613125905 20 206 11.3 19.3 0.00 0.00 0.00 92 1016.9
20240613125406 20 198 11.3 17.7 0.00 0.00 0.00 92 1017.1
20240613124905 20 205 8.0 16.1 0.00 0.00 0.00 93 1017.0
20240613124405 19 197 9.7 16.1 0.00 0.00 0.00 93 1017.2
20240613123903 19 195 12.9 16.1 0.00 0.00 0.00 93 1017.2
20240613123403 19 196 11.3 12.9 0.00 0.00 0.00 94 1017.2
20240613122900 19 194 9.7 14.5 0.00 0.00 0.00 95 1017.2
20240613122359 18 181 6.4 12.9 0.00 0.00 0.00 95 1016.8